Weather in Vidlitsa

Russia / Republic of Karelia     61°11′37″N   32°23′51″E
temp.,
°C
wind,
m/s
gust,
m/s
humid.,
%
clouds,
%
prec.,
mm/h
press.,
hPa
HPBL,
m
2 march, tue
tue200:00+1wnw5138980 0.1 1006848
03:00−1wnw4148747 0.1 1007676
06:00−2wnw413886 0.0 1006643
09:00−2wnw4128913 0.0 1007624
12:000nw5108746 0.0 1008875
15:000nw5127467 0.1 10101692
18:00−3nw3137811 0.0 1012558
21:00−4nw312846 0.0 1014411
3 march, wed
wed300:00−5wnw311900 0.0 1014314
03:00−4wnw3119128 0.0 1014417
06:00−4wnw413911 0.0 1012520
09:00−3wnw4129027 0.0 1012501
12:00−1w499134 0.0 1010493
15:00−1w489061 0.0 1009573
18:00−1wsw3993100 0.0 1005553
21:000sw61397100 2.9 1000840
4 march, thu
thu400:00+1w51297100 1.4 995767
03:00−3wnw4138884 1.4 994671
06:00−5wnw5138632 0.0 994770
09:00−4nw5119165 0.1 995912
12:00−3nnw5981100 0.1 997908
15:00−3nnw477775 0.1 9991087
18:00−6nw268973 0.0 1000167
21:00−7nw389472 0.1 1002321
5 march, fri
fri500:00−9nw269593 0.0 1003194
03:00−9nw279696 0.1 1004220
06:00−10nw259698 0.0 1004154
09:00−11nw259493 0.0 1005179
12:00−8nnw248859 0.0 1007511
15:00−7n348680 0.1 1009703
18:00−11nne3790100 0.1 1010346
21:00−15n229263 0.1 101225
6 march, sat
sat600:00−16nnw12930 0.0 101420
03:00−16nw12940 0.0 101420
06:00−16w12940 0.0 101320
09:00−13sw139826 0.0 1012105
12:00−8wsw368991 0.0 1010593
15:00−7sw478996 0.1 1008584
18:00−9s389399 0.0 1005308
21:00−9s3109199 0.0 1003348